[[{"header":{"parameterUnit":"m.s-1","parameterCategory":1,"la1":30.2991,"la2":30.254,"lo1":-89.0895,"lo2":-89.0444,"dy":0.0017,"dx":0.0017,"nx":28,"ny":28,"refTime":"2023-09-04T09:00:00:Z","depth":0,"parameterNumber":2,"parameterNumberName":"U-component_of_WINDS"},"data":[0,0,0,0,0,0,0,0,0,0,0,0,0,0,0,0,0,0,0,0,0,0,0,0,0,0,0,0,0,0,0,0,0,0,0,0,0,0,0,0,0,0,0,0,0,0,0,0,0,0,0,0,0,0,0,0,0,0,-2.6626,-2.6627,0,-2.6781,-2.6783,-2.6784,-2.6808,-2.6806,-2.6805,-2.6803,-2.6968,-2.6973,-2.6979,0,0,0,0,0,0,0,0,0,0,0,0,0,-2.6355,-2.636,-2.6626,-2.6627,-2.6629,-2.6781,-2.6783,-2.6785,-2.6808,-2.6806,-2.6804,-2.6803,-2.6966,-2.6973,-2.6979,0,0,0,0,0,0,0,0,0,0,0,0,0,-2.6488,-2.6362,-2.6625,-2.6659,-2.6664,-2.678,-2.6783,-2.6785,-2.6808,-2.6806,-2.6804,-2.6802,-2.6964,-2.6972,-2.698,-2.7076,0,0,-2.7006,-2.701,0,0,0,0,0,0,0,0,-2.648,-2.6498,-2.6652,-2.6657,-2.6662,-2.6773,-2.6748,-2.6883,-2.6809,-2.6754,-2.6803,-2.6801,-2.6905,-2.6918,-2.6952,-2.7083,-2.709,-2.7007,-2.7012,-2.7016,-2.7018,0,0,0,0,0,0,0,-2.6471,-2.6491,-2.6687,-2.6654,-2.6661,-2.6668,-2.6685,-2.6773,-2.6839,-2.6758,-2.676,-2.6778,-2.6907,-2.6944,-2.6956,-2.7093,-2.7007,-2.7015,-2.702,-2.7023,-2.7311,-2.7313,0,0,0,0,0,0,-2.6455,-2.6483,-2.6682,-2.6692,-2.6564,-2.6675,-2.6693,-2.6739,-2.6838,-2.6851,-2.678,-2.6778,-2.693,-2.6946,-2.6962,-2.708,-2.7016,-2.7024,-2.7029,-2.7308,-2.7311,-2.7314,0,0,0,0,0,0,-2.6449,-2.6472,-2.6676,-2.6588,-2.6615,-2.6682,-2.6733,-2.6744,-2.678,-2.6855,-2.6867,-2.6804,-2.6929,-2.695,-2.7047,-2.7086,-2.7028,-2.7036,-2.7305,-2.7309,-2.7313,-2.7316,0,0,0,0,0,0,-2.6441,-2.647,-2.6506,-2.6589,-2.6619,-2.6756,-2.6736,-2.6748,-2.6794,-2.6794,-2.6881,-2.6894,-2.6929,-2.7034,-2.7055,-2.7096,-2.7042,-2.7302,-2.7307,-2.7311,-2.7313,-2.7319,-2.7325,0,0,0,0,0,-2.6431,-2.6502,-2.6507,-2.6531,-2.6665,-2.6759,-2.6776,-2.6814,-2.6797,-2.6834,-2.6882,-2.6891,-2.7078,-2.7044,-2.7068,-2.7112,-2.73,-2.7306,-2.7311,-2.731,-2.7318,-2.7325,0,0,0,0,0,0,-2.6423,-2.6513,-2.652,-2.6619,-2.6681,-2.6762,-2.681,-2.6822,-2.6891,-2.6888,-2.6934,-2.6954,-2.7048,-2.7091,-2.705,-2.721,-2.7188,-2.7199,-2.7179,-2.7187,-2.7193,-2.718,-2.7049,0,0,0,0,0,-2.6432,-2.6499,-2.6575,-2.6655,-2.6685,-2.6742,-2.6785,-2.6809,-2.6875,-2.6902,-2.6957,-2.7023,-2.7097,-2.7145,-2.7217,-2.7319,-2.7339,-2.7362,-2.7368,-2.7373,-2.7381,-2.7439,-2.745,-2.7333,-2.7333,-2.7332,0,0,-2.6453,-2.651,-2.655,-2.6655,-2.6705,-2.6775,-2.6764,-2.6839,-2.6891,-2.6914,-2.7008,-2.7051,-2.7128,-2.7228,-2.7275,-2.7266,-2.7418,-2.738,-2.7383,-2.7389,-2.7446,-2.7457,-2.7467,-2.7336,-2.7336,-2.7335,0,0,-2.6525,-2.6575,-2.6647,-2.6698,-2.6774,-2.6811,-2.6829,-2.6909,-2.6938,-2.7033,-2.7051,-2.7116,-2.7242,-2.7296,-2.7339,-2.7433,-2.7444,-2.7456,-2.7488,-2.7544,-2.7553,-2.7561,-2.7594,-2.7606,-2.7464,-2.7464,-2.7464,0,-2.6541,-2.6645,-2.6683,-2.6756,-2.6802,-2.6824,-2.6898,-2.6947,-2.7043,-2.7075,-2.7064,-2.7222,-2.7276,-2.7388,-2.7411,-2.7446,-2.7468,-2.7445,-2.7548,-2.7557,-2.7565,-2.7597,-2.761,-2.7465,-2.7465,-2.7465,-2.7465,0,-2.6661,-2.6733,-2.6783,-2.6873,-2.6925,-2.6998,-2.7049,-2.7097,-2.7117,-2.7156,-2.7253,-2.7318,-2.7404,-2.7433,-2.7454,-2.7549,-2.7541,-2.7538,-2.7517,-2.7577,-2.7608,-2.762,-2.7466,-2.7466,-2.7466,-2.7466,0,0,-2.6732,-2.6842,-2.6859,-2.69,-2.6986,-2.7044,-2.7119,-2.7201,-2.7242,-2.7309,-2.7373,-2.748,-2.7478,-2.7527,-2.7555,-2.7604,-2.7674,-2.7595,-2.7598,-2.7607,-2.7783,-2.7783,-2.7797,-2.7682,-2.7684,-2.7686,-2.7776,0,-2.6814,-2.6945,-2.6982,-2.7094,-2.7162,-2.7184,-2.725,-2.7311,-2.735,-2.7415,-2.746,-2.7534,-2.7526,-2.7556,-2.7605,-2.7654,-2.7709,-2.7649,-2.7743,-2.7746,-2.7722,-2.7813,-2.7814,-2.7896,-2.7789,-2.7791,-2.7792,0,-2.6926,-2.6992,-2.7111,-2.7188,-2.7218,-2.7276,-2.7354,-2.7415,-2.7485,-2.7511,-2.7566,-2.7589,-2.7671,-2.7646,-2.7759,-2.7716,-2.7758,-2.7788,-2.7792,-2.7802,-2.7772,-2.7824,-2.7923,-2.7934,-2.7812,-2.781,-2.7809,0,-2.6965,-2.7084,-2.717,-2.7205,-2.7298,-2.7338,-2.7379,-2.7447,-2.7494,-2.7563,-2.7594,-2.7673,-2.7716,-2.7777,-2.7822,-2.7799,-2.7931,-2.791,-2.7955,-2.7954,-2.7981,-2.7978,-2.8086,-2.8009,-2.8009,-2.8008,-2.8008,0,-2.7051,-2.7123,-2.7188,-2.7241,-2.7322,-2.7365,-2.7445,-2.7487,-2.7548,-2.7611,-2.7637,-2.7696,-2.7751,-2.7818,-2.7854,-2.7942,-2.7962,-2.7985,-2.7993,-2.7982,-2.7979,-2.8009,-2.8004,-2.8012,-2.8011,-2.801,-2.801,0,-2.7108,-2.7154,-2.7249,-2.7329,-2.7351,-2.7407,-2.7476,-2.7529,-2.757,-2.7649,-2.767,-2.7734,-2.7814,-2.7865,-2.7968,-2.7992,-2.8088,-2.8095,-2.8063,-2.8067,-2.8109,-2.8104,-2.8239,-2.8259,-2.8169,-2.817,-2.8171,0,-2.7159,-2.7214,-2.7299,-2.7342,-2.7382,-2.7452,-2.7499,-2.7544,-2.7593,-2.7677,-2.7721,-2.7802,-2.7869,-2.7997,-2.8054,-2.8133,-2.8142,-2.8184,-2.8154,-2.814,-2.8141,-2.8137,-2.8143,-2.8188,-2.8189,-2.8189,-2.819,0,-2.7246,-2.7266,-2.7332,-2.7407,-2.7462,-2.7524,-2.7586,-2.762,-2.7676,-2.773,-2.7811,-2.7863,-2.7967,-2.8048,-2.8132,-2.8176,-2.8193,-2.8199,-2.8213,-2.8202,-2.8181,-2.8192,-2.8076,-2.8195,-2.8195,-2.8194,-2.8194,-2.8194,-2.7301,-2.7351,-2.7418,-2.7491,-2.7542,-2.7599,-2.7653,-2.7699,-2.7767,-2.7853,-2.7877,-2.7962,-2.8032,-2.8146,-2.8192,-2.8261,-2.8255,-2.8276,-2.8282,-2.8286,-2.8286,-2.817,-2.8276,-2.8276,-2.8276,-2.8276,-2.8276,0,-2.7389,-2.7433,-2.75,-2.7584,-2.7642,-2.7651,-2.772,-2.7768,-2.7842,-2.7905,-2.797,-2.8064,-2.8143,-2.8206,-2.8287,-2.833,-2.8339,-2.8349,-2.8346,-2.8356,-2.8287,-2.8265,-2.834,-2.834,-2.834,-2.834,-2.834,-2.834,-2.7441,-2.7525,-2.7554,-2.7664,-2.7709,-2.779,-2.7829,-2.7882,-2.7933,-2.8035,-2.81,-2.814,-2.8204,-2.829,-2.8363,-2.838,-2.8408,-2.8417,-2.8435,-2.8368,-2.8361,-2.8354,-2.8335,-2.8423,-2.8423,-2.8499,-2.85,-2.85]},{"header":{"parameterUnit":"m.s-1","parameterCategory":1,"la1":30.2991,"la2":30.254,"lo1":-89.0895,"lo2":-89.0444,"dy":0.0017,"dx":0.0017,"nx":28,"ny":28,"refTime":"2023-09-04T09:00:00:Z","depth":0,"parameterNumber":3,"parameterNumberName":"V-component_of_WINDS"},"data":[0,0,0,0,0,0,0,0,0,0,0,0,0,0,0,0,0,0,0,0,0,0,0,0,0,0,0,0,0,0,0,0,0,0,0,0,0,0,0,0,0,0,0,0,0,0,0,0,0,0,0,0,0,0,0,0,0,0,4.635,4.6351,0,4.65,4.6502,4.6503,4.6472,4.6469,4.6467,4.6464,4.6616,4.6622,4.6628,0,0,0,0,0,0,0,0,0,0,0,0,0,4.6034,4.604,4.635,4.6352,4.6354,4.65,4.6502,4.6504,4.6473,4.6469,4.6466,4.6463,4.6613,4.6621,4.6629,0,0,0,0,0,0,0,0,0,0,0,0,0,4.6176,4.6042,4.6349,4.6356,4.6358,4.6499,4.6502,4.6504,4.6473,4.6469,4.6465,4.6461,4.6611,4.662,4.663,4.6774,0,0,4.666,4.6665,0,0,0,0,0,0,0,0,4.6168,4.6188,4.6353,4.6355,4.6358,4.6463,4.6446,4.6595,4.6474,4.6429,4.6464,4.6459,4.6568,4.6581,4.6618,4.6781,4.6788,4.6661,4.6667,4.6672,4.6674,0,0,0,0,0,0,0,4.6158,4.6181,4.6409,4.6355,4.6358,4.635,4.6366,4.6474,4.652,4.6433,4.6431,4.6449,4.6569,4.6609,4.6622,4.679,4.6661,4.667,4.6676,4.668,4.7078,4.7082,0,0,0,0,0,0,4.6147,4.6173,4.6404,4.6414,4.6251,4.6359,4.6377,4.6433,4.6519,4.6528,4.6453,4.6447,4.6594,4.661,4.6627,4.68,4.6672,4.6681,4.6686,4.7073,4.7079,4.7084,0,0,0,0,0,0,4.614,4.6168,4.6398,4.6293,4.6322,4.6369,4.6433,4.6439,4.6479,4.6534,4.6542,4.6486,4.6591,4.6613,4.6738,4.6805,4.6685,4.6694,4.7068,4.7075,4.7081,4.7148,0,0,0,0,0,0,4.6131,4.6165,4.6221,4.6295,4.6328,4.6507,4.6437,4.6445,4.6496,4.6491,4.6567,4.6575,4.659,4.6723,4.6748,4.6816,4.6702,4.7062,4.7071,4.7079,4.714,4.7156,4.717,0,0,0,0,0,4.612,4.6234,4.6224,4.6252,4.6398,4.6511,4.653,4.6545,4.6502,4.6558,4.6593,4.6573,4.6794,4.6736,4.6763,4.6836,4.7058,4.7068,4.7078,4.7133,4.7153,4.717,0,0,0,0,0,0,4.6166,4.6243,4.6233,4.6375,4.6437,4.6506,4.6577,4.6566,4.6641,4.6633,4.6648,4.6665,4.6792,4.6827,4.6761,4.698,4.692,4.6936,4.6952,4.6971,4.6986,4.6974,4.671,0,0,0,0,0,4.6193,4.6279,4.6342,4.646,4.6492,4.6529,4.6579,4.6585,4.665,4.6676,4.672,4.6783,4.6867,4.6921,4.7001,4.7146,4.7161,4.7209,4.7224,4.7237,4.725,4.7328,4.7349,4.7118,4.7118,4.7118,0,0,4.6249,4.6302,4.6355,4.6471,4.6519,4.6607,4.6551,4.6647,4.6712,4.669,4.681,4.6845,4.6916,4.7051,4.7113,4.7084,4.7318,4.725,4.7259,4.7266,4.734,4.7362,4.7382,4.7125,4.7124,4.7123,0,0,4.6395,4.6444,4.6548,4.6598,4.6673,4.6697,4.6722,4.6793,4.6816,4.6937,4.6922,4.7,4.7144,4.7195,4.7239,4.7405,4.7389,4.7431,4.751,4.7585,4.7604,4.762,4.7677,4.7698,4.7445,4.7445,4.7445,0,4.6454,4.6587,4.6602,4.6699,4.675,4.6735,4.6839,4.6887,4.6984,4.7019,4.6986,4.7167,4.7214,4.736,4.74,4.7438,4.7465,4.7421,4.76,4.7616,4.7632,4.7687,4.7708,4.7449,4.7449,4.7448,4.7448,0,4.6655,4.6748,4.6822,4.6916,4.6976,4.7076,4.7106,4.7164,4.7166,4.7193,4.7316,4.7373,4.7463,4.7499,4.7501,4.7645,4.7625,4.7596,4.7535,4.7658,4.771,4.7731,4.7456,4.7454,4.7453,4.7452,0,0,4.6834,4.6936,4.6962,4.7005,4.7086,4.7157,4.7257,4.7346,4.7395,4.7463,4.7545,4.7668,4.7642,4.7693,4.7701,4.7768,4.7894,4.773,4.7732,4.7757,4.8054,4.8074,4.8098,4.7884,4.7888,4.7892,4.8048,0,4.6986,4.7161,4.7178,4.7335,4.7419,4.7407,4.7493,4.7552,4.7581,4.7656,4.7687,4.7773,4.7733,4.7763,4.7829,4.7864,4.7953,4.7854,4.796,4.7963,4.794,4.8126,4.8147,4.8292,4.8068,4.8072,4.8074,0,4.7187,4.726,4.7425,4.7495,4.7531,4.7608,4.7691,4.7763,4.783,4.7846,4.7903,4.7903,4.8004,4.7941,4.8081,4.8013,4.8057,4.8081,4.8087,4.8096,4.8025,4.8138,4.8338,4.8359,4.8107,4.8104,4.8102,0,4.7298,4.7438,4.7555,4.7592,4.7676,4.773,4.7768,4.7831,4.7883,4.7956,4.7989,4.8073,4.8118,4.8182,4.8204,4.8157,4.8342,4.8281,4.8357,4.8356,4.8395,4.8392,4.8603,4.8427,4.8427,4.8426,4.8426,0,4.7465,4.7566,4.7606,4.7677,4.779,4.7808,4.7919,4.7954,4.801,4.8087,4.8083,4.8155,4.818,4.8257,4.8275,4.8387,4.8408,4.8423,4.8426,4.8422,4.842,4.845,4.844,4.8432,4.8431,4.843,4.8429,0,4.7607,4.7638,4.7764,4.7834,4.7854,4.7933,4.7993,4.8061,4.8089,4.8187,4.8211,4.8255,4.8345,4.8374,4.8483,4.8494,4.8625,4.862,4.8602,4.8602,4.8675,4.8667,4.8912,4.8944,4.8748,4.875,4.8752,0,4.771,4.7788,4.7866,4.7917,4.7957,4.8041,4.8094,4.8116,4.8171,4.8253,4.8312,4.8401,4.8474,4.8619,4.8659,4.8743,4.8739,4.8819,4.8751,4.8745,4.8738,4.8732,4.8739,4.8831,4.8833,4.8834,4.8836,0,4.789,4.7902,4.7979,4.8063,4.8126,4.8193,4.8257,4.8299,4.833,4.8393,4.8485,4.8542,4.8653,4.8741,4.8826,4.8864,4.8855,4.8857,4.8879,4.8875,4.8861,4.8868,4.8635,4.8851,4.8849,4.8848,4.8848,4.8847,4.8016,4.8083,4.8148,4.8235,4.8285,4.8345,4.8413,4.8449,4.8526,4.8619,4.8627,4.8726,4.8791,4.8904,4.8946,4.9024,4.9001,4.9032,4.904,4.9047,4.9052,4.885,4.904,4.9039,4.9039,4.9039,4.9038,0,4.8194,4.8235,4.8314,4.8404,4.8471,4.8458,4.8528,4.8585,4.8673,4.8734,4.8806,4.8912,4.8998,4.9046,4.9131,4.9184,4.9182,4.9206,4.9201,4.921,4.9069,4.9041,4.9206,4.9206,4.9206,4.9206,4.9206,4.9206,4.8294,4.8408,4.8427,4.8565,4.8606,4.8703,4.8744,4.8799,4.8848,4.8966,4.9038,4.9069,4.9125,4.9214,4.9292,4.9304,4.9335,4.9361,4.937,4.9237,4.922,4.9203,4.9177,4.9368,4.9369,4.9505,4.9506,4.9507]}]]